Find Starlink 36215

NORAD ID: 67100 Int'l Des: 2025-298 Owner: SPXS Country: US Constellation: starlink operational
LEOCIRCULAR

Current View

Loading 3D Globe...

About Starlink 36215

Description loading...

Upcoming Passes

Passes for default location (London). Set your location on the main map for personalized predictions.

Altitude History

Loading altitude history...

Two-Line Element Set

1 67100U 25298AB 26146.50693926 .00001517 00000-0 13488-3 0 9990
2 67100 70.0013 178.2439 0003563 266.7801 93.2950 14.98343639 24877
Epoch: May 26, 2026 • Age: 9 hours

Current Status

Altitude 578.5 km
Velocity 7.57 km/s
Sub-Earth Point -21.39°S, 164.83°E
Launch Date Dec 14, 2025
Age 0.4 years
Type internet

Technical Details

Classification Payload
Mass 575.00 kg
Dry Mass 530.00 kg
Total Mass 575.00 kg
Length 0.30 m
Diameter 4.10 m
Span 29.00 m
Shape Box + pan
Manufacturer SPXS
Bus Type Starlink V2MO
Phase Status In Orbit
Owner/State SPXS/US

Most Searched